Zurück zum Katalog

ARIANE 5 R/B

AktivHEO
NORAD 36832·ROCKET BODY·🇫🇷 France

Gestartet Aug 4, 2010 von Guiana Space Centre

Loading…

Nächste Überflüge (nächste 24 Stunden)

TLE

AktuellSource: Space-Track

Epoche: Sep 14, 2026, 06:58 UTC

1 36832U 10037C   26257.29029501  .00001058  00000-0  41384-3 0  9990
2 36832   2.5238 296.4567 6985067 113.8399 330.3283  2.65177906144563

Verfolge ARIANE 5 R/B in Echtzeit mit AllMySat

Download on the App Store